Time,TemperatureF,DewpointF,PressureIn,WindDirection,WindDirectionDegrees,WindSpeedMPH,WindSpeedGustMPH,Humidity,HourlyPrecipIn,Conditions,Clouds,dailyrainin,SoftwareType,DateUTC
2013-02-16 00:02:00,31.0,28.0,29.89,South,176,3.0,11.0,89,0.00,,,0.00,,2013-02-16 05:02:00,
2013-02-16 00:12:00,31.0,28.0,29.89,South,176,3.0,11.0,89,0.00,,,0.00,,2013-02-16 05:12:00,
2013-02-16 00:22:00,30.0,27.0,29.89,South,174,3.0,11.0,89,0.00,,,0.00,,2013-02-16 05:22:00,
2013-02-16 00:32:00,30.0,27.0,29.88,South,173,2.0,10.0,87,0.00,,,0.00,,2013-02-16 05:32:00,
2013-02-16 00:42:00,30.0,27.0,29.88,South,173,2.0,10.0,87,0.00,,,0.00,,2013-02-16 05:42:00,
2013-02-16 00:52:00,29.0,25.0,29.88,South,175,3.0,11.0,86,0.00,,,0.00,,2013-02-16 05:52:00,
2013-02-16 01:02:00,29.0,25.0,29.88,South,176,2.0,10.0,85,0.00,,,0.00,,2013-02-16 06:02:00,
2013-02-16 01:11:00,29.0,25.0,29.88,South,176,2.0,10.0,85,0.00,,,0.00,,2013-02-16 06:11:00,
2013-02-16 01:22:00,29.0,25.0,29.87,South,173,3.0,11.0,85,0.00,,,0.00,,2013-02-16 06:22:00,
2013-02-16 01:32:00,29.0,25.0,29.87,South,173,2.0,10.0,86,0.00,,,0.00,,2013-02-16 06:32:00,
2013-02-16 01:42:00,29.0,25.0,29.87,South,173,2.0,10.0,86,0.00,,,0.00,,2013-02-16 06:42:00,
2013-02-16 01:52:00,29.0,25.0,29.86,South,181,3.0,9.0,86,0.00,,,0.00,,2013-02-16 06:52:00,
2013-02-16 02:02:00,29.0,25.0,29.86,South,174,2.0,10.0,84,0.00,,,0.00,,2013-02-16 07:02:00,
2013-02-16 02:11:00,29.0,25.0,29.86,South,174,2.0,10.0,84,0.00,,,0.00,,2013-02-16 07:11:00,
2013-02-16 02:21:00,29.0,24.0,29.85,South,175,1.0,9.0,81,0.00,,,0.00,,2013-02-16 07:21:00,
2013-02-16 02:32:00,29.0,23.0,29.85,SSE,166,1.0,9.0,79,0.00,,,0.00,,2013-02-16 07:32:00,
2013-02-16 02:42:00,29.0,23.0,29.85,SSE,166,1.0,9.0,79,0.00,,,0.00,,2013-02-16 07:42:00,
2013-02-16 02:52:00,29.0,23.0,29.85,South,174,2.0,8.0,78,0.00,,,0.00,,2013-02-16 07:52:00,
2013-02-16 03:01:00,29.0,23.0,29.85,South,174,2.0,8.0,77,0.00,,,0.00,,2013-02-16 08:01:00,
2013-02-16 03:11:00,29.0,23.0,29.85,South,174,2.0,8.0,77,0.00,,,0.00,,2013-02-16 08:11:00,
2013-02-16 03:21:00,28.0,22.0,29.84,South,169,2.0,8.0,77,0.00,,,0.00,,2013-02-16 08:21:00,
2013-02-16 03:32:00,28.0,22.0,29.83,South,176,2.0,8.0,77,0.00,,,0.00,,2013-02-16 08:32:00,
2013-02-16 03:42:00,28.0,22.0,29.83,South,176,2.0,8.0,77,0.00,,,0.00,,2013-02-16 08:42:00,
2013-02-16 03:52:00,28.0,22.0,29.83,South,176,1.0,7.0,77,0.00,,,0.00,,2013-02-16 08:52:00,
2013-02-16 04:02:00,28.0,22.0,29.83,South,173,1.0,9.0,77,0.00,,,0.00,,2013-02-16 09:02:00,
2013-02-16 04:11:00,28.0,22.0,29.83,South,173,1.0,9.0,77,0.00,,,0.00,,2013-02-16 09:11:00,
2013-02-16 04:21:00,28.0,22.0,29.83,South,174,1.0,6.0,78,0.00,,,0.00,,2013-02-16 09:21:00,
2013-02-16 04:32:00,28.0,22.0,29.83,South,176,1.0,7.0,78,0.00,,,0.00,,2013-02-16 09:32:00,
2013-02-16 04:42:00,28.0,22.0,29.83,South,176,1.0,7.0,78,0.00,,,0.00,,2013-02-16 09:42:00,
2013-02-16 04:51:00,28.0,22.0,29.83,South,174,1.0,5.0,77,0.00,,,0.00,,2013-02-16 09:51:00,
2013-02-16 05:01:00,28.0,21.0,29.83,South,172,2.0,7.0,76,0.00,,,0.00,,2013-02-16 10:01:00,
2013-02-16 05:11:00,28.0,21.0,29.83,South,172,2.0,7.0,76,0.00,,,0.00,,2013-02-16 10:11:00,
2013-02-16 05:21:00,28.0,21.0,29.83,South,171,0.0,7.0,76,0.00,,,0.00,,2013-02-16 10:21:00,
2013-02-16 05:32:00,28.0,21.0,29.83,South,172,2.0,8.0,75,0.00,,,0.00,,2013-02-16 10:32:00,
2013-02-16 05:42:00,28.0,21.0,29.83,South,172,2.0,8.0,75,0.00,,,0.00,,2013-02-16 10:42:00,
2013-02-16 05:52:00,28.0,21.0,29.83,South,169,1.0,8.0,75,0.00,,,0.00,,2013-02-16 10:52:00,
2013-02-16 06:02:00,28.0,21.0,29.83,South,173,1.0,6.0,75,0.00,,,0.00,,2013-02-16 11:02:00,
2013-02-16 06:11:00,28.0,21.0,29.83,South,173,1.0,6.0,75,0.00,,,0.00,,2013-02-16 11:11:00,
2013-02-16 06:22:00,28.0,21.0,29.83,South,171,0.0,5.0,74,0.00,,,0.00,,2013-02-16 11:22:00,
2013-02-16 06:32:00,28.0,20.0,29.83,South,172,2.0,5.0,73,0.00,,,0.00,,2013-02-16 11:32:00,
2013-02-16 06:42:00,28.0,20.0,29.83,South,172,2.0,5.0,73,0.00,,,0.00,,2013-02-16 11:42:00,
2013-02-16 06:52:00,28.0,20.0,29.83,South,172,1.0,5.0,73,0.00,,,0.00,,2013-02-16 11:52:00,
2013-02-16 07:02:00,28.0,20.0,29.83,South,172,0.0,3.0,73,0.00,,,0.00,,2013-02-16 12:02:00,
2013-02-16 07:12:00,28.0,20.0,29.83,South,172,0.0,3.0,73,0.00,,,0.00,,2013-02-16 12:12:00,
2013-02-16 07:22:00,28.0,20.0,29.83,South,172,0.0,5.0,73,0.00,,,0.00,,2013-02-16 12:22:00,
2013-02-16 07:32:00,28.0,20.0,29.83,South,172,1.0,6.0,72,0.00,,,0.00,,2013-02-16 12:32:00,
2013-02-16 07:42:00,28.0,20.0,29.83,South,172,1.0,6.0,72,0.00,,,0.00,,2013-02-16 12:42:00,
2013-02-16 07:52:00,28.0,20.0,29.82,South,171,0.0,5.0,73,0.00,,,0.00,,2013-02-16 12:52:00,
2013-02-16 08:02:00,28.0,21.0,29.82,South,171,0.0,2.0,74,0.00,,,0.00,,2013-02-16 13:02:00,
2013-02-16 08:12:00,28.0,21.0,29.82,South,171,0.0,2.0,74,0.00,,,0.00,,2013-02-16 13:12:00,
2013-02-16 08:22:00,28.0,21.0,29.82,South,172,0.0,3.0,74,0.00,,,0.00,,2013-02-16 13:22:00,
2013-02-16 08:32:00,28.0,21.0,29.82,South,172,0.0,5.0,75,0.00,,,0.00,,2013-02-16 13:32:00,
2013-02-16 08:42:00,28.0,21.0,29.82,South,172,0.0,5.0,75,0.00,,,0.00,,2013-02-16 13:42:00,
2013-02-16 08:51:00,28.0,21.0,29.82,South,172,0.0,4.0,75,0.00,,,0.00,,2013-02-16 13:51:00,
2013-02-16 09:01:00,28.0,21.0,29.82,South,172,0.0,4.0,75,0.00,,,0.00,,2013-02-16 14:01:00,
2013-02-16 09:11:00,28.0,21.0,29.82,South,172,0.0,4.0,75,0.00,,,0.00,,2013-02-16 14:11:00,
2013-02-16 09:21:00,28.0,20.0,29.82,South,172,1.0,5.0,72,0.00,,,0.00,,2013-02-16 14:21:00,
2013-02-16 09:32:00,29.0,21.0,29.82,South,170,1.0,6.0,71,0.00,,,0.00,,2013-02-16 14:32:00,
2013-02-16 09:42:00,29.0,21.0,29.82,South,170,1.0,6.0,71,0.00,,,0.00,,2013-02-16 14:42:00,
2013-02-16 09:52:00,30.0,21.0,29.82,SSE,167,0.0,9.0,70,0.00,,,0.00,,2013-02-16 14:52:00,
2013-02-16 10:02:00,30.0,21.0,29.81,South,169,0.0,4.0,69,0.00,,,0.00,,2013-02-16 15:02:00,
2013-02-16 10:11:00,30.0,21.0,29.81,South,169,0.0,4.0,69,0.00,,,0.00,,2013-02-16 15:11:00,
2013-02-16 10:22:00,30.0,21.0,29.80,South,169,0.0,3.0,70,0.00,,,0.00,,2013-02-16 15:22:00,
2013-02-16 10:32:00,32.0,23.0,29.80,South,169,1.0,3.0,68,0.00,,,0.00,,2013-02-16 15:32:00,
2013-02-16 10:42:00,32.0,23.0,29.80,South,169,1.0,3.0,68,0.00,,,0.00,,2013-02-16 15:42:00,
2013-02-16 10:52:00,32.0,21.0,29.80,South,169,0.0,5.0,64,0.00,,,0.00,,2013-02-16 15:52:00,
2013-02-16 11:02:00,32.0,21.0,29.80,South,169,1.0,7.0,64,0.00,,,0.00,,2013-02-16 16:02:00,
2013-02-16 11:11:00,32.0,21.0,29.80,South,169,1.0,7.0,64,0.00,,,0.00,,2013-02-16 16:11:00,
2013-02-16 11:21:00,32.0,22.0,29.79,South,169,0.0,5.0,65,0.00,,,0.00,,2013-02-16 16:21:00,
2013-02-16 11:32:00,32.0,22.0,29.80,South,173,3.0,10.0,65,0.00,,,0.00,,2013-02-16 16:32:00,
2013-02-16 11:42:00,32.0,22.0,29.80,South,173,3.0,10.0,65,0.00,,,0.00,,2013-02-16 16:42:00,
2013-02-16 11:52:00,31.0,22.0,29.80,South,171,2.0,11.0,69,0.00,,,0.00,,2013-02-16 16:52:00,
2013-02-16 12:01:00,30.0,21.0,29.79,SSE,168,3.0,8.0,69,0.00,,,0.00,,2013-02-16 17:01:00,
2013-02-16 12:11:00,30.0,21.0,29.79,SSE,168,3.0,8.0,69,0.00,,,0.00,,2013-02-16 17:11:00,
2013-02-16 12:22:00,32.0,23.0,29.78,South,170,1.0,7.0,70,0.00,,,0.00,,2013-02-16 17:22:00,
2013-02-16 12:32:00,33.0,23.0,29.78,South,172,1.0,6.0,67,0.00,,,0.00,,2013-02-16 17:32:00,
2013-02-16 12:42:00,33.0,23.0,29.78,South,172,1.0,6.0,67,0.00,,,0.00,,2013-02-16 17:42:00,
2013-02-16 12:52:00,33.0,22.0,29.77,South,173,0.0,8.0,64,0.00,,,0.00,,2013-02-16 17:52:00,
2013-02-16 13:02:00,32.0,22.0,29.77,South,178,0.0,6.0,66,0.00,,,0.00,,2013-02-16 18:02:00,
2013-02-16 13:11:00,32.0,20.0,29.76,South,169,2.0,9.0,62,0.00,,,0.00,,2013-02-16 18:11:00,
2013-02-16 13:21:00,32.0,20.0,29.76,South,169,2.0,9.0,62,0.00,,,0.00,,2013-02-16 18:21:00,
2013-02-16 13:33:00,32.0,22.0,29.75,South,176,1.0,6.0,65,0.00,,,0.00,,2013-02-16 18:33:00,
2013-02-16 13:42:00,32.0,22.0,29.75,South,176,1.0,6.0,65,0.00,,,0.00,,2013-02-16 18:42:00,
2013-02-16 13:52:00,31.0,20.0,29.75,South,178,1.0,8.0,64,0.00,,,0.00,,2013-02-16 18:52:00,
2013-02-16 14:02:00,30.0,20.0,29.75,SSE,165,2.0,11.0,65,0.00,,,0.00,,2013-02-16 19:02:00,
2013-02-16 14:11:00,30.0,20.0,29.75,SSE,165,2.0,11.0,65,0.00,,,0.00,,2013-02-16 19:11:00,
2013-02-16 14:22:00,30.0,21.0,29.75,South,173,3.0,13.0,70,0.00,,,0.00,,2013-02-16 19:22:00,
2013-02-16 14:32:00,30.0,21.0,29.75,South,173,3.0,13.0,70,0.00,,,0.00,,2013-02-16 19:32:00,
2013-02-16 14:42:00,30.0,21.0,29.75,South,173,3.0,13.0,70,0.00,,,0.00,,2013-02-16 19:42:00,
2013-02-16 14:52:00,31.0,20.0,29.73,South,172,4.0,16.0,63,0.00,,,0.00,,2013-02-16 19:52:00,
2013-02-16 15:01:00,29.0,18.0,29.73,South,173,3.0,15.0,64,0.00,,,0.00,,2013-02-16 20:01:00,
2013-02-16 15:11:00,29.0,19.0,29.72,South,169,3.0,13.0,66,0.00,,,0.00,,2013-02-16 20:11:00,
2013-02-16 15:22:00,29.0,19.0,29.72,South,169,3.0,13.0,66,0.00,,,0.00,,2013-02-16 20:22:00,
2013-02-16 15:32:00,28.0,18.0,29.73,South,176,3.0,12.0,67,0.00,,,0.00,,2013-02-16 20:32:00,
2013-02-16 15:42:00,28.0,18.0,29.73,South,176,3.0,12.0,67,0.00,,,0.00,,2013-02-16 20:42:00,
2013-02-16 15:52:00,27.0,18.0,29.73,South,173,4.0,18.0,69,0.00,,,0.00,,2013-02-16 20:52:00,
2013-02-16 16:02:00,28.0,18.0,29.72,South,172,4.0,13.0,66,0.00,,,0.00,,2013-02-16 21:02:00,
2013-02-16 16:11:00,28.0,18.0,29.72,South,172,4.0,13.0,66,0.00,,,0.00,,2013-02-16 21:11:00,
2013-02-16 16:21:00,28.0,16.0,29.72,South,176,4.0,13.0,59,0.00,,,0.00,,2013-02-16 21:21:00,
2013-02-16 16:32:00,27.0,15.0,29.72,South,176,2.0,15.0,61,0.00,,,0.00,,2013-02-16 21:32:00,
2013-02-16 16:42:00,27.0,15.0,29.72,South,176,2.0,15.0,61,0.00,,,0.00,,2013-02-16 21:42:00,
2013-02-16 16:52:00,27.0,14.0,29.72,South,173,4.0,14.0,57,0.00,,,0.00,,2013-02-16 21:52:00,
2013-02-16 17:01:00,26.0,14.0,29.72,South,183,3.0,11.0,59,0.00,,,0.00,,2013-02-16 22:01:00,
2013-02-16 17:11:00,26.0,14.0,29.72,South,183,3.0,11.0,59,0.00,,,0.00,,2013-02-16 22:11:00,
2013-02-16 17:21:00,26.0,14.0,29.72,South,183,3.0,11.0,59,0.00,,,0.00,,2013-02-16 22:21:00,
2013-02-16 17:32:00,25.0,13.0,29.72,South,170,4.0,16.0,60,0.00,,,0.00,,2013-02-16 22:32:00,
2013-02-16 17:42:00,25.0,13.0,29.72,South,170,4.0,16.0,60,0.00,,,0.00,,2013-02-16 22:42:00,
2013-02-16 17:52:00,25.0,13.0,29.73,South,176,5.0,16.0,59,0.00,,,0.00,,2013-02-16 22:52:00,
2013-02-16 18:02:00,23.0,12.0,29.73,South,173,4.0,15.0,63,0.00,,,0.00,,2013-02-16 23:02:00,
2013-02-16 18:11:00,23.0,12.0,29.73,South,173,4.0,15.0,63,0.00,,,0.00,,2013-02-16 23:11:00,
2013-02-16 18:21:00,23.0,12.0,29.73,South,172,5.0,14.0,61,0.00,,,0.00,,2013-02-16 23:21:00,
2013-02-16 18:32:00,22.0,10.0,29.75,South,176,4.0,19.0,58,0.00,,,0.00,,2013-02-16 23:32:00,
2013-02-16 18:42:00,22.0,10.0,29.75,South,176,4.0,19.0,58,0.00,,,0.00,,2013-02-16 23:42:00,
2013-02-16 18:52:00,22.0,10.0,29.75,South,184,4.0,18.0,59,0.00,,,0.00,,2013-02-16 23:52:00,
2013-02-16 19:02:00,22.0,10.0,29.75,South,174,2.0,14.0,58,0.00,,,0.00,,2013-02-17 00:02:00,
2013-02-16 19:12:00,22.0,10.0,29.75,South,174,2.0,14.0,58,0.00,,,0.00,,2013-02-17 00:12:00,
2013-02-16 19:22:00,21.0,10.0,29.76,South,174,4.0,15.0,63,0.00,,,0.00,,2013-02-17 00:22:00,
2013-02-16 19:32:00,21.0,11.0,29.77,SSE,165,3.0,14.0,66,0.00,,,0.00,,2013-02-17 00:32:00,
2013-02-16 19:42:00,21.0,11.0,29.77,SSE,165,3.0,14.0,66,0.00,,,0.00,,2013-02-17 00:42:00,
2013-02-16 19:52:00,20.0,11.0,29.78,South,172,4.0,13.0,67,0.00,,,0.00,,2013-02-17 00:52:00,
2013-02-16 20:01:00,20.0,11.0,29.78,South,174,2.0,9.0,68,0.00,,,0.00,,2013-02-17 01:01:00,
2013-02-16 20:11:00,20.0,11.0,29.78,South,174,2.0,9.0,68,0.00,,,0.00,,2013-02-17 01:11:00,
2013-02-16 20:21:00,20.0,12.0,29.79,South,173,3.0,8.0,72,0.00,,,0.00,,2013-02-17 01:21:00,
2013-02-16 20:32:00,20.0,11.0,29.79,South,170,2.0,13.0,69,0.00,,,0.00,,2013-02-17 01:32:00,
2013-02-16 20:41:00,20.0,11.0,29.79,South,170,2.0,13.0,69,0.00,,,0.00,,2013-02-17 01:41:00,
2013-02-16 20:52:00,20.0,11.0,29.79,South,176,1.0,15.0,69,0.00,,,0.00,,2013-02-17 01:52:00,
2013-02-16 21:01:00,20.0,11.0,29.79,SSE,168,4.0,18.0,68,0.00,,,0.00,,2013-02-17 02:01:00,
2013-02-16 21:11:00,20.0,11.0,29.79,SSE,168,4.0,18.0,68,0.00,,,0.00,,2013-02-17 02:11:00,
2013-02-16 21:21:00,19.0,11.0,29.80,South,174,2.0,13.0,71,0.00,,,0.00,,2013-02-17 02:21:00,
2013-02-16 21:32:00,19.0,11.0,29.81,South,174,1.0,13.0,72,0.00,,,0.00,,2013-02-17 02:32:00,
2013-02-16 21:42:00,19.0,11.0,29.81,South,174,1.0,13.0,72,0.00,,,0.00,,2013-02-17 02:42:00,
2013-02-16 21:52:00,18.0,14.0,29.83,South,180,1.0,7.0,83,0.00,,,0.00,,2013-02-17 02:52:00,
2013-02-16 22:02:00,18.0,14.0,29.83,South,176,1.0,5.0,83,0.00,,,0.00,,2013-02-17 03:02:00,
2013-02-16 22:11:00,18.0,14.0,29.83,South,176,1.0,5.0,83,0.00,,,0.00,,2013-02-17 03:11:00,
2013-02-16 22:21:00,19.0,11.0,29.83,South,176,2.0,12.0,72,0.00,,,0.00,,2013-02-17 03:21:00,
2013-02-16 22:32:00,19.0,12.0,29.83,South,181,2.0,9.0,73,0.00,,,0.00,,2013-02-17 03:32:00,
2013-02-16 22:42:00,19.0,12.0,29.83,South,181,2.0,9.0,73,0.00,,,0.00,,2013-02-17 03:42:00,
2013-02-16 22:51:00,18.0,11.0,29.84,South,169,3.0,8.0,75,0.00,,,0.00,,2013-02-17 03:51:00,
2013-02-16 23:01:00,19.0,11.0,29.84,South,174,2.0,7.0,69,0.00,,,0.00,,2013-02-17 04:01:00,
2013-02-16 23:11:00,19.0,12.0,29.84,South,176,1.0,6.0,73,0.00,,,0.00,,2013-02-17 04:11:00,
2013-02-16 23:21:00,19.0,12.0,29.84,South,176,1.0,6.0,73,0.00,,,0.00,,2013-02-17 04:21:00,
2013-02-16 23:32:00,18.0,11.0,29.84,South,181,2.0,9.0,75,0.00,,,0.00,,2013-02-17 04:32:00,
2013-02-16 23:42:00,18.0,11.0,29.84,South,181,2.0,9.0,75,0.00,,,0.00,,2013-02-17 04:42:00,
2013-02-16 23:51:00,18.0,11.0,29.83,South,171,1.0,8.0,72,0.00,,,0.00,,2013-02-17 04:51:00,